{"data":{"norad_id":66876,"intl_designator":"2025-281AE","name":"STARLINK-35702","alt_names":[],"object_type":"PAYLOAD","status":"ACTIVE","operator":null,"country":"US","launch_date":"2025-12-02","launch_site_code":"AFETR","launch_vehicle":null,"mission":null,"orbit_class":"UNKNOWN","rcs_meters":null,"size_class":null,"mass_kg":null,"dimensions":null,"purposes":["comms"],"wikipedia_slug":null,"has_3d_model":false,"image_url":null,"decayed_at":null,"tle_current":{"epoch":"2026-05-25T01:06:00.606240Z","epoch_age_seconds":67770,"freshness":"FRESH","line1":"1 66876U 25281AE  26145.04584035  .00008074  00000+0  30253-3 0  9992","line2":"2 66876  42.9950 272.2124 0000334  29.0887 330.9983 15.27587597 27851","mean_motion":15.27587597,"eccentricity":3.34e-5,"inclination_deg":42.995,"raan_deg":272.2124,"arg_perigee_deg":29.0887,"mean_anomaly_deg":330.9983,"bstar":0.00030253,"rev_number":2785,"period_min":94.266279906173,"perigee_km":482.7971851271,"apogee_km":483.25551083874,"semimajor_km":6861.1633479829,"source":"CELESTRAK","updated_at":"2026-05-25T13:38:21.377376Z"}}}